Погода в Алексеевке

Погода в Алексеевке : погода сейчас, прогноз погоды и архив. Всё, что Вы хотите узнать о погоде в Алексеевке!

Поиск расширенной информации на нашем сайте:

Другие новости

Новости СМИ2

Главная страница сайта

Новости сайта

02.10.2013

Напоминаем, что на нашем новом сайте вы можете получить высокодетализированные прогнозы погоды по пунктам России, СНГ и мира (включающие важные для авиации метеовеличины, такие как направление и скорость ветра, видимость, явления погоды, количество и форма облачности, нижняя и верхняя граница облачности), а также ознакомиться с разнообразными материалами по авиационной метеорологии и подборкой полезных ссылок на эту тему.

Сайт Метеоцентр.Азия посвящён разработке технологий оптимизации авиаметеорологического обслуживания, включая проектирование и перспективное создание нескольких автоматизированных авиаметеорологических систем:
- система выпуска высокодетальных прогностических карт явлений погоды для нижнего воздушного пространства по России и ближнему зарубежью;
- система верификации прогнозов TAF (выпускаемых синоптиками официальных АМСГ РФ и ближнего зарубежья) и AUTOTAF (выпускаемых сайтом Метеоцентр.Азия) - выявление ошибок, онлайн-сопоставление с фактической погодой METAR, автоматическое внесение коррективов в прогнозы при резком отклонении фактической погоды от прогноза, подсчёт оправдываемости прогнозов по элементам и в целом;
- система обработки, анализа и отображения авиаметеорологической информации для применения провайдерами метеорологической информации.


Погода в Алексеевке - сегодня

Время (UTC), дата Ветер
(°,м/с) 
Видим.   Явления Облачность Т
(°С)
Тd
(°С)
f(%) Тe
(°С)
Pmin
(гПа)
dP
(гПа)
Po
(мм)
O2
(г/м3)
Тmin Tmax R s Состояние
почвы
18 22.05.17 220 (ЮЗ) н/о    ясно 
+16.3 +5 47 +18  1003.3  -0.8  719  273    +30.1       
21 22.05.17 200 (Ю) н/о    ясно 
+13.9 +5.9 58 +15  1000.9  -2.6  717  274           
00 23.05.17 200 (Ю) 20000 м    10/0 верхняя 
[Ci]
+12.7 +3.8 55 +14  998.7  -2.3  716  275           
03 23.05.17 220 (ЮЗ) 20000 м    8/0 средняя, верхняя 
[Ac As|Ci fib]
+19.6 +2.2 31 +20  996.2  -1.4  715  268           
06 23.05.17 230 (ЮЗ) 8{19}  20000 м    ясно 
+25.1 +9.1 36 +26  994.4  -0.9  714  262  +12         
09 23.05.17 230 (ЮЗ) 13-22{25}  20000 м    8/8 600 м кучево-дожд. 
[Cb cap]
+22 +8 41 +22  996.4  1.5  715  265           
12 23.05.17 260 (З) 13-21{26}  20000 м  в посл. час ливневой дождь  9/9 600 м кучево-дожд. 
[Cb cap]
+14.3 +11.9 85 +17  1001  3.3  718  272           
15 23.05.17 260 (З) 7{24}  20000 м    3/3 600 м 
[Sc]
+15.3 +12.6 84 +21  1002.9  719  272    +26.6  0.0     
18 23.05.17 260 (З) н/о    ясно 
+13.9 +10.3 79 +15  1005.5  2.2  721  274    +26.6  0.0     
21 23.05.17 260 (З) н/о    ясно 
+9.9 +7.9 87 +9  1007.8  1.6  722  279           
00 24.05.17 тихо ()   20000 м    4/4 600 м 
[Sc]
+7.3 +5.3 87 +7  1009.1  0.8  723  283           
03 24.05.17 250 (З) 20000 м  в посл. час ливневой дождь  10/10 600 м кучево-дожд. 
[Cb cap]
+11.1 +10.5 96 +14  1008.4  723  278         
06 24.05.17 260 (З) 20000 м  в посл. час ливневой дождь  10/10 600 м кучево-дожд. 
[Cb cap]
+11.5 +9.8 89 +12  1009.3  0.9  723  278  +7.2       
09 24.05.17 280 (З) 20000 м    8/8 1000 м 
[Cu med, cong]
+14.7 +2.3 43 +14  1009.7  0.8  724  276           
12 24.05.17 280 (З) 20000 м    4/4 1000 м 
[Sc]
+12.7 +1.4 46 +12  1012.7  2.5  726  279           
15 24.05.17 290 (З) 20000 м    3/3 1000 м 
[Sc]
+10.3 +2.2 57 +10  1015  1.9  727  282    +17     
18 24.05.17 290 (З) н/о    ясно 
+5.3 +1 74 +5  1017.5  1.6  728  288    +17     
21 24.05.17 290 (З) н/о    ясно 
+3.3 +0.4 81 +4  1018.5  0.6  729  290           
00 25.05.17 300 (СЗ) 20000 м    3/0 средняя 
[Ac trans]
+4.5 +1.2 79 +4  1018.6  0.3  729  289           
03 25.05.17 270 (З) 20000 м    3/0 средняя 
[Ac trans]
+10.5 +0.4 50 +10  1018.8  1.1  730  283           
06 25.05.17 270 (З) 20000 м    6/6 600 м 
[Cu Sc]
+14.9 -1.1 33 +14  1017.8  -0.3  730  279  +3.1         
09 25.05.17 260 (З) 5{15}  20000 м    ясно 
+18.8 -3.4 22 +19  1016.4  -0.7  729  275           
12 25.05.17 280 (З) 20000 м    ясно 
+20.6 -1.2 23 +21  1015.4  -0.7  729  273           
15 25.05.17 270 (З) 20000 м    ясно 
+18.6 +0.9 30 +20  1015.7  729  275    +20.7       
18 25.05.17 280 (З) н/о    ясно 
+7.9 +4 76 +9  1019.3  1.8  730  285    +20.7       
Время (UTC), дата Ветер
(°,м/с) 
Видим.   Явления Облачность Т
(°С)
Тd
(°С)
f(%) Тe
(°С)
Pmin
(гПа)
dP
(гПа)
Po
(мм)
O2
(г/м3)
Тmin Tmax R s Состояние
почвы

Для получения пояснительной информации подведите курсор к названию столбца.

ПОГОДА в Алексеевке - архив

Всё, что Вы хотите узнать о погоде в Алексеевке - удобно и подробно!

Выберите нужную дату (начиная с 1 января 2015* года) и нажмите кнопку "Найти".
Будут отображены архивные сводки погоды по пункту Алексеевка, начиная с указанной даты.


Отображать данные в формате CSV (для использования в таблицах Excel)


Внимание! Наш архив погоды предназначен исключительно для личного некоммерческого использования в познавательных целях. Если Вам необходимы официальные справки о состоянии погоды (для производственных, юридических, коммерческих и т.п. целей), обращайтесь в органы Росгидромета.

*Примечание: данная дата относится к архиву по метеостанциям СССР (Россия, СНГ, Балтия).
Архив по метеостанциям Зарубежной Европы и Азии (кроме Китая) хранится 10 дней, по другим регионам земного шара (Китай, Африка, Америка, Австралия, Океания) - 1 день.

Алексеевка - район местоположения метеостанции


Название, широта, долгота, высота метеостанции:
Алексеевка 52°ш. 70.9°д. 384 м над ур. моря [Казахстан]

Дополнительная информация

В oтличие oт бoльшинства пoгoдных сайтoв мы публикуем пoдрoбную метеoинфoрмацию в детальнoм прoфессиoнальнoм фoрмате.

Характеристики температуры и влажнoсти вoздуха измеряются на высoте 2 м в тени вдали oт зданий и деревьев.
Скoрoсть ветра измеряется на высoте 10 м (на урoвне рoста челoвека скoрoсть ветра ниже в 1.5-2 раза). Если метеoстанция нахoдится в гoрoде или в лесу, тo скoрoсть ветра занижена на 2-4 м/с пo сравнению с oткрытым местoм. Скoрoсть ветра над акватoриями крупных рек и oзёр, а также на вершинах хoлмoв на 2-5 м/с выше, чем в oбычных услoвиях.
Атмoсфернoе давление в разных тoчках местнoсти мoжет значительнo oтличаться oт давления на метеoстанции, в зависимoсти oт услoвий рельефа (при пoдъёме на 10 м давление пoнижается примернo на 1 мм рт.ст.).